KI4HRG Weather Reports


time (UTC)temp
F
wind
direction
speed
knots
gust
knots
rain 1hr
in
rain 24hr
in
rain mn
in
humidity
%
barometer
mb
20260906105434 77 314 0.0 0.0 0.00 0.00 0.00 90 1012.8
20260906104930 77 322 0.0 0.0 0.00 0.00 0.00 90 1012.8
20260906104427 77 25 0.0 0.0 0.00 0.00 0.00 89 1012.8
20260906103922 77 42 0.0 0.0 0.00 0.00 0.00 89 1012.9
20260906103420 77 0 0.0 0.0 0.00 0.00 0.00 88 1013.0
20260906102916 77 325 0.0 2.6 0.00 0.00 0.00 88 1012.8
20260906102415 78 21 0.9 1.7 0.00 0.00 0.00 86 1013.0
20260906101910 78 15 0.0 0.9 0.00 0.00 0.00 84 1012.8
20260906101405 78 2 1.7 1.7 0.00 0.00 0.00 83 1012.8
20260906100901 79 23 0.9 5.2 0.00 0.00 0.00 83 1012.8
20260906100400 79 4 0.9 1.7 0.00 0.00 0.00 81 1012.9
20260906095854 80 27 0.9 2.6 0.00 0.00 0.00 82 1013.0
20260906095350 80 24 0.9 0.9 0.00 0.00 0.00 80 1012.5
20260906094844 80 25 1.7 2.6 0.00 0.00 0.00 79 1012.3
20260906094339 79 64 0.0 0.9 0.00 0.00 0.00 80 1012.2
20260906093835 79 103 0.0 1.7 0.00 0.00 0.00 82 1012.0
20260906093331 79 5 0.0 0.9 0.00 0.00 0.00 83 1012.3
20260906092826 79 66 0.0 1.7 0.00 0.00 0.00 86 1012.1
20260906092326 79 336 0.9 0.9 0.00 0.00 0.00 89 1012.2
20260906091821 79 51 0.0 1.7 0.00 0.00 0.00 91 1012.2
20260906091317 79 331 0.0 0.0 0.00 0.00 0.00 93 1012.3
20260906090814 79 329 0.0 0.0 0.00 0.00 0.00 93 1012.3
20260906090313 79 145 0.0 0.0 0.00 0.00 0.00 94 1012.0
20260906085813 79 134 0.0 0.0 0.00 0.00 0.00 94 1012.2
20260906085311 79 208 1.7 1.7 0.00 0.00 0.00 94 1012.2
20260906084806 79 290 1.7 2.6 0.00 0.00 0.00 94 1012.0
20260906084300 79 33 0.0 0.9 0.00 0.00 0.00 94 1012.1
20260906083755 80 207 0.9 1.7 0.00 0.00 0.00 93 1012.2
20260906083251 80 261 1.7 2.6 0.00 0.00 0.00 93 1012.2
20260906082745 80 346 0.9 0.9 0.00 0.00 0.00 93 1012.3
20260906082241 80 292 1.7 1.7 0.00 0.00 0.00 93 1012.3
20260906081736 80 296 0.0 0.0 0.00 0.00 0.00 93 1012.4
20260906081231 80 266 0.0 0.0 0.00 0.00 0.00 93 1012.5
20260906080728 80 291 0.9 0.9 0.00 0.00 0.00 93 1012.7
20260906080224 80 335 0.0 0.0 0.00 0.00 0.00 94 1013.0
20260906075723 80 53 0.0 0.0 0.00 0.00 0.00 94 1012.7
20260906075218 79 19 1.7 2.6 0.00 0.00 0.00 94 1012.6
20260906074713 79 21 0.0 0.9 0.00 0.00 0.00 94 1012.4
20260906074213 80 280 0.0 0.0 0.00 0.00 0.00 94 1012.4
20260906073707 80 48 0.0 0.0 0.00 0.00 0.00 94 1012.5
20260906073203 80 74 0.0 1.7 0.00 0.00 0.00 94 1012.2
20260906072658 79 182 0.0 0.0 0.00 0.00 0.00 95 1012.1
20260906072154 79 301 0.0 0.0 0.00 0.00 0.00 94 1012.0
20260906071650 79 354 0.0 0.0 0.00 0.00 0.00 94 1012.4
20260906071149 79 4 0.0 0.0 0.00 0.00 0.00 95 1012.4
20260906070646 79 322 0.0 0.0 0.00 0.00 0.00 94 1012.4
20260906070141 79 318 0.0 0.0 0.00 0.00 0.00 94 1012.4
20260906065641 79 321 0.0 0.0 0.00 0.00 0.00 94 1012.5
20260906065136 79 312 0.0 0.0 0.00 0.00 0.00 94 1012.5
20260906064632 79 302 0.0 0.0 0.00 0.00 0.00 94 1012.4
20260906064127 79 333 0.0 0.0 0.00 0.00 0.00 94 1012.6
20260906063622 79 346 0.0 0.0 0.00 0.00 0.00 94 1012.8
20260906063118 79 337 0.0 0.0 0.00 0.00 0.00 94 1012.7
20260906062613 79 10 0.0 0.0 0.00 0.00 0.00 94 1012.8
20260906062112 79 19 0.0 0.0 0.00 0.00 0.00 94 1012.8
20260906061609 79 311 0.0 0.0 0.00 0.00 0.00 94 1012.9
20260906061108 79 324 0.0 0.0 0.00 0.00 0.00 94 1013.1
20260906060605 79 324 0.0 0.0 0.00 0.00 0.00 94 1013.0
20260906055557 78 324 0.0 0.0 0.00 0.00 0.00 94 1013.2
20260906055053 78 315 0.0 0.0 0.00 0.00 0.00 94 1012.9
20260906054552 79 317 0.0 0.0 0.00 0.00 0.00 93 1013.0
20260906054048 79 318 0.0 0.0 0.00 0.00 0.00 93 1013.2
20260906053544 79 288 0.0 0.0 0.00 0.00 0.00 93 1012.9
20260906053039 79 323 0.0 0.0 0.00 0.00 0.00 92 1013.0
20260906052535 79 323 0.0 0.0 0.00 0.00 0.00 92 1013.1
20260906052032 79 325 0.0 0.0 0.00 0.00 0.00 92 1012.9
20260906051527 79 303 0.0 0.0 0.00 0.00 0.00 92 1013.2
20260906051022 79 292 0.0 0.0 0.00 0.00 0.00 91 1013.2
20260906050518 80 315 0.0 0.0 0.00 0.00 0.00 91 1013.3
20260906050012 80 310 0.0 0.0 0.00 0.00 0.00 91 1013.2
20260906045510 80 346 0.0 0.0 0.00 0.00 0.00 90 1012.9
20260906045006 80 31 0.9 1.7 0.00 0.00 0.00 90 1013.2
20260906044501 80 36 0.0 0.9 0.00 0.00 0.00 90 1013.1
20260906043951 80 317 0.0 0.0 0.00 0.00 0.00 90 1012.9
20260906043447 80 351 0.0 0.0 0.00 0.00 0.00 90 1013.1
20260906042943 80 351 0.0 0.0 0.00 0.00 0.00 90 1012.9
20260906042442 80 303 0.0 0.0 0.00 0.00 0.00 90 1013.0
20260906041936 79 315 0.0 0.0 0.00 0.00 0.00 90 1013.1
20260906041433 80 315 0.0 0.0 0.00 0.00 0.00 90 1013.0
20260906040932 80 306 0.0 0.0 0.00 0.00 0.00 90 1013.1
20260906040427 80 318 0.0 0.0 0.00 0.00 0.00 90 1013.1
20260906035923 80 318 0.0 0.0 0.00 0.00 0.00 90 1013.1
20260906035418 80 294 0.0 0.0 0.00 0.00 0.00 90 1013.0
20260906034913 80 0 0.0 0.0 0.00 0.00 0.00 90 1012.9
20260906034414 80 0 0.0 0.0 0.00 0.00 0.00 89 1013.0
20260906033909 80 19 0.0 0.0 0.00 0.00 0.00 89 1013.3
20260906033409 80 89 0.0 0.0 0.00 0.00 0.00 89 1013.1
20260906032904 81 89 0.0 0.0 0.00 0.00 0.00 89 1013.1
20260906032401 81 89 0.0 0.0 0.00 0.00 0.00 88 1013.0
20260906031855 81 98 0.0 0.0 0.00 0.00 0.00 88 1013.0
20260906031350 81 99 0.0 0.0 0.00 0.00 0.00 88 1012.9
20260906030845 81 87 0.0 0.0 0.00 0.00 0.00 88 1013.0
20260906030341 81 84 0.0 0.0 0.00 0.00 0.00 88 1012.9
20260906025835 81 85 0.0 0.0 0.00 0.00 0.00 88 1012.7
20260906025329 81 72 0.0 0.0 0.00 0.00 0.00 88 1012.9
20260906024828 81 74 0.0 0.0 0.00 0.00 0.00 88 1012.9
20260906024327 82 81 0.0 0.0 0.00 0.00 0.00 87 1013.0
20260906023823 82 75 0.0 0.0 0.00 0.00 0.00 87 1012.9
20260906023319 82 79 0.0 0.0 0.00 0.00 0.00 87 1012.9
20260906022814 82 120 0.0 0.0 0.00 0.00 0.00 86 1012.9
20260906022309 82 136 0.0 0.9 0.00 0.00 0.00 86 1012.7
20260906021805 82 93 0.0 0.0 0.00 0.00 0.00 86 1012.7
20260906021304 82 95 0.0 0.0 0.00 0.00 0.00 86 1012.7
20260906020758 82 107 0.0 0.0 0.00 0.00 0.00 86 1012.8
20260906020252 83 107 0.0 0.0 0.00 0.00 0.00 85 1012.7
20260906015753 83 109 0.0 0.9 0.00 0.00 0.00 85 1012.7
20260906015251 83 326 0.0 0.0 0.00 0.00 0.00 84 1012.4
20260906014746 83 320 0.0 0.0 0.00 0.00 0.00 84 1012.4
20260906014241 83 318 0.0 0.0 0.00 0.00 0.00 84 1012.4
20260906013738 83 284 0.0 0.0 0.00 0.00 0.00 84 1012.1
20260906013237 84 265 0.0 0.0 0.00 0.00 0.00 83 1012.0
20260906012733 84 187 0.9 0.9 0.00 0.00 0.00 83 1011.9
20260906012227 84 290 0.0 0.0 0.00 0.00 0.00 83 1011.8
20260906011723 84 219 0.9 0.9 0.00 0.00 0.00 83 1011.8
20260906011217 84 98 0.0 0.9 0.00 0.00 0.00 82 1011.5
20260906010713 84 175 0.9 0.9 0.00 0.00 0.00 83 1011.5
20260906010209 84 143 0.0 0.0 0.00 0.00 0.00 83 1011.7
20260906005709 84 124 0.0 0.0 0.00 0.00 0.00 82 1011.5
20260906005203 85 149 0.0 0.0 0.00 0.00 0.00 82 1011.5
20260906004701 85 109 0.0 0.0 0.00 0.00 0.00 82 1011.3
20260906004157 85 108 0.0 0.0 0.00 0.00 0.00 82 1011.4
20260906003652 85 143 0.0 0.0 0.00 0.00 0.00 81 1011.5
20260906003147 85 138 0.0 0.0 0.00 0.00 0.00 81 1011.5
20260906002642 86 319 0.0 0.9 0.00 0.00 0.00 80 1011.4
20260906002137 86 134 0.0 0.0 0.00 0.00 0.00 80 1011.4
20260906001632 86 220 0.0 1.7 0.00 0.00 0.00 79 1011.4
20260906001132 86 234 0.0 0.9 0.00 0.00 0.00 79 1011.7
20260906000628 86 178 0.9 0.9 0.00 0.00 0.00 78 1011.7
20260906000123 86 172 0.0 1.7 0.00 0.00 0.00 78 1011.7
20260905235622 87 167 1.7 1.7 0.00 0.00 0.00 78 1011.6
20260905235117 87 42 0.0 0.9 0.00 0.00 0.00 76 1011.6
20260905234612 87 86 0.0 0.9 0.00 0.00 0.00 76 1011.6
20260905234107 87 206 0.0 0.9 0.00 0.00 0.00 77 1011.7
20260905233602 87 195 0.0 0.9 0.00 0.00 0.00 77 1011.8
20260905233056 87 78 0.9 1.7 0.00 0.00 0.00 77 1011.4
20260905232552 87 211 0.9 1.7 0.00 0.00 0.00 77 1011.6
20260905232048 88 161 1.7 4.3 0.00 0.00 0.00 77 1011.6
20260905231543 88 96 0.9 1.7 0.00 0.00 0.00 76 1011.4
20260905231039 88 86 0.0 2.6 0.00 0.00 0.00 76 1011.6
20260905230538 89 217 0.9 1.7 0.00 0.00 0.00 75 1011.3
20260905230037 89 180 1.7 4.3 0.00 0.00 0.00 74 1011.4
20260905225532 89 212 0.0 2.6 0.00 0.00 0.00 73 1011.4
20260905225027 89 147 1.7 2.6 0.00 0.00 0.00 74 1011.5
20260905224521 89 169 2.6 4.3 0.00 0.00 0.00 74 1011.6
20260905224021 90 290 0.9 2.6 0.00 0.00 0.00 73 1011.5
20260905223518 91 84 0.9 2.6 0.00 0.00 0.00 71 1011.6
20260905223013 91 209 0.0 2.6 0.00 0.00 0.00 70 1011.4
20260905222508 92 97 0.9 4.3 0.00 0.00 0.00 68 1011.1
20260905222003 92 169 0.0 0.9 0.00 0.00 0.00 67 1011.1
20260905221500 92 180 1.7 1.7 0.00 0.00 0.00 67 1011.2
20260905220956 93 159 0.9 1.7 0.00 0.00 0.00 67 1011.2
20260905220452 93 151 0.0 1.7 0.00 0.00 0.00 66 1011.1
20260905215950 93 131 0.0 1.7 0.00 0.00 0.00 65 1010.9
20260905215446 94 222 1.7 4.3 0.00 0.00 0.00 65 1010.8
20260905214943 94 128 0.0 1.7 0.00 0.00 0.00 63 1010.9
20260905214438 94 189 0.0 0.9 0.00 0.00 0.00 62 1010.9
20260905213938 95 168 1.7 5.2 0.00 0.00 0.00 61 1010.8
20260905213434 95 127 0.9 0.9 0.00 0.00 0.00 56 1010.9
20260905212929 95 76 0.0 0.9 0.00 0.00 0.00 55 1011.0
20260905212424 95 70 0.9 4.3 0.00 0.00 0.00 55 1010.9
20260905211923 96 203 0.9 1.7 0.00 0.00 0.00 55 1011.0
20260905211419 96 139 3.5 6.1 0.00 0.00 0.00 54 1011.2
20260905210915 97 175 0.0 2.6 0.00 0.00 0.00 54 1010.9
20260905210409 97 171 0.9 1.7 0.00 0.00 0.00 53 1011.1
20260905205909 98 167 1.7 1.7 0.00 0.00 0.00 50 1011.0
20260905205403 98 152 0.0 0.9 0.00 0.00 0.00 50 1011.0
20260905204902 97 74 0.9 0.9 0.00 0.00 0.00 53 1011.1
20260905204358 97 184 2.6 2.6 0.00 0.00 0.00 53 1011.3
20260905203851 96 143 0.0 0.9 0.00 0.00 0.00 56 1011.5
20260905203347 96 143 0.0 0.9 0.00 0.00 0.00 56 1011.3
20260905202842 97 345 0.0 0.0 0.00 0.00 0.00 56 1011.4
20260905202337 97 28 0.9 0.9 0.00 0.00 0.00 56 1011.5
20260905201833 98 34 3.5 6.1 0.00 0.00 0.00 55 1011.4
20260905201328 99 166 2.6 2.6 0.00 0.00 0.00 47 1011.5
20260905200822 98 104 0.0 4.3 0.00 0.00 0.00 47 1011.4
20260905200319 98 47 0.0 4.3 0.00 0.00 0.00 46 1011.3
20260905195816 99 48 2.6 4.3 0.00 0.00 0.00 46 1011.5
20260905194808 98 136 0.0 4.3 0.00 0.00 0.00 47 1011.7
20260905194307 98 40 0.9 2.6 0.00 0.00 0.00 46 1011.6
20260905193806 98 85 0.0 2.6 0.00 0.00 0.00 45 1011.6
20260905193301 98 109 0.9 1.7 0.00 0.00 0.00 46 1011.8
20260905192756 99 317 0.9 2.6 0.00 0.00 0.00 45 1012.0
20260905192253 98 315 0.0 1.7 0.00 0.00 0.00 45 1012.0
20260905191751 99 20 1.7 5.2 0.00 0.00 0.00 45 1012.0
20260905191250 99 354 1.7 5.2 0.00 0.00 0.00 47 1012.2
20260905190748 98 45 0.0 4.3 0.00 0.00 0.00 49 1012.2
20260905190243 97 346 0.9 0.9 0.00 0.00 0.00 49 1012.2
20260905185741 96 351 0.0 1.7 0.00 0.00 0.00 50 1012.4
20260905185236 97 330 2.6 2.6 0.00 0.00 0.00 50 1012.5
20260905184730 97 345 0.9 2.6 0.00 0.00 0.00 50 1012.5
20260905184230 98 72 0.0 1.7 0.00 0.00 0.00 49 1012.6
20260905183723 98 344 2.6 4.3 0.00 0.00 0.00 49 1012.5
20260905183219 96 354 0.9 2.6 0.00 0.00 0.00 50 1012.8
20260905182713 97 28 1.7 4.3 0.00 0.00 0.00 52 1012.7
20260905182213 96 60 0.9 1.7 0.00 0.00 0.00 53 1012.9
20260905181708 96 24 0.9 4.3 0.00 0.00 0.00 52 1013.0
20260905181207 97 121 1.7 5.2 0.00 0.00 0.00 49 1013.0
20260905180702 99 67 0.0 4.3 0.00 0.00 0.00 47 1013.1
20260905180158 99 3 0.0 0.9 0.00 0.00 0.00 47 1013.2
20260905175656 99 342 2.6 2.6 0.00 0.00 0.00 47 1013.1
20260905175152 99 172 4.3 6.1 0.00 0.00 0.00 48 1013.3
20260905174647 97 22 1.7 7.0 0.00 0.00 0.00 49 1013.4
20260905174143 97 339 0.0 1.7 0.00 0.00 0.00 50 1013.5
20260905173639 97 67 0.0 1.7 0.00 0.00 0.00 51 1013.6
20260905173134 98 167 0.0 0.0 0.00 0.00 0.00 49 1013.6
20260905172633 98 30 1.7 2.6 0.00 0.00 0.00 50 1013.7
20260905172128 98 23 2.6 4.3 0.00 0.00 0.00 50 1013.8
20260905171624 96 72 0.0 2.6 0.00 0.00 0.00 52 1013.6
20260905171120 97 51 0.9 1.7 0.00 0.00 0.00 52 1013.9
20260905170616 95 115 0.0 1.7 0.00 0.00 0.00 53 1014.1
20260905170111 98 157 2.6 5.2 0.00 0.00 0.00 52 1014.2
20260905165606 98 63 0.0 0.9 0.00 0.00 0.00 53 1014.1
20260905165101 95 22 0.0 0.9 0.00 0.00 0.00 55 1014.1
20260905164556 95 126 1.7 7.0 0.00 0.00 0.00 55 1014.2
20260905164050 96 348 1.7 2.6 0.00 0.00 0.00 54 1014.2
20260905163546 94 125 0.0 0.9 0.00 0.00 0.00 56 1014.4
20260905163042 94 78 0.0 0.9 0.00 0.00 0.00 55 1014.6
20260905162539 95 197 0.9 2.6 0.00 0.00 0.00 55 1014.3
20260905162037 94 117 1.7 2.6 0.00 0.00 0.00 57 1014.4
20260905161532 96 34 4.3 5.2 0.00 0.00 0.00 56 1014.6
20260905161030 97 13 1.7 2.6 0.00 0.00 0.00 54 1014.6
20260905160529 95 28 0.0 1.7 0.00 0.00 0.00 56 1014.4
20260905160029 97 113 0.9 2.6 0.00 0.00 0.00 54 1014.7
20260905155529 96 20 1.7 2.6 0.00 0.00 0.00 56 1014.4
20260905155027 95 56 0.0 2.6 0.00 0.00 0.00 57 1014.6
20260905154523 95 228 1.7 1.7 0.00 0.00 0.00 57 1014.4
20260905154018 93 6 1.7 5.2 0.00 0.00 0.00 59 1014.6
20260905153514 95 340 2.6 6.1 0.00 0.00 0.00 57 1014.7
20260905153014 95 317 0.0 1.7 0.00 0.00 0.00 57 1014.6
20260905152514 94 53 0.0 1.7 0.00 0.00 0.00 58 1014.4
20260905152009 94 353 1.7 1.7 0.00 0.00 0.00 58 1014.6
20260905151504 95 63 0.0 1.7 0.00 0.00 0.00 59 1014.6
20260905150959 93 290 2.6 2.6 0.00 0.00 0.00 60 1014.7
20260905150454 93 82 0.9 2.6 0.00 0.00 0.00 61 1014.4
20260905145951 94 129 0.0 0.9 0.00 0.00 0.00 60 1014.6
20260905145445 93 53 0.9 0.9 0.00 0.00 0.00 64 1014.4
20260905144945 93 41 0.0 0.9 0.00 0.00 0.00 63 1014.8
20260905144440 93 57 0.0 0.9 0.00 0.00 0.00 65 1014.7
20260905143939 93 65 0.0 0.0 0.00 0.00 0.00 63 1014.9
20260905143438 91 345 0.9 1.7 0.00 0.00 0.00 66 1014.8
20260905142933 91 282 0.0 0.9 0.00 0.00 0.00 67 1014.9
20260905142432 90 314 0.0 0.9 0.00 0.00 0.00 67 1014.8
20260905141928 90 291 0.9 1.7 0.00 0.00 0.00 69 1014.8
20260905141422 90 71 0.0 0.9 0.00 0.00 0.00 71 1014.7
20260905140919 89 71 0.0 1.7 0.00 0.00 0.00 72 1014.8
20260905140414 88 356 1.7 1.7 0.00 0.00 0.00 73 1014.8
20260905135912 87 76 1.7 1.7 0.00 0.00 0.00 75 1014.8
20260905135408 87 76 0.0 0.9 0.00 0.00 0.00 75 1015.0
20260905134904 86 76 0.0 1.7 0.00 0.00 0.00 78 1015.0
20260905134402 86 77 0.0 0.9 0.00 0.00 0.00 79 1015.0
20260905133856 86 82 1.7 1.7 0.00 0.00 0.00 78 1015.0
20260905133352 86 79 0.0 0.0 0.00 0.00 0.00 79 1014.8
20260905132851 85 77 0.0 0.0 0.00 0.00 0.00 80 1015.0
20260905132346 85 81 0.0 0.0 0.00 0.00 0.00 80 1014.9
20260905131840 84 80 0.0 0.0 0.00 0.00 0.00 81 1014.8
20260905131336 83 80 0.0 0.0 0.00 0.00 0.00 83 1014.9
20260905130831 82 78 0.0 0.0 0.00 0.00 0.00 84 1015.2
20260905130330 82 77 0.0 0.9 0.00 0.00 0.00 85 1015.2
20260905125826 81 77 0.0 0.9 0.00 0.00 0.00 87 1015.1
20260905125321 80 78 0.0 0.0 0.00 0.00 0.00 87 1015.3
20260905124817 80 78 0.0 0.0 0.00 0.00 0.00 87 1015.0
20260905124313 81 83 0.0 0.9 0.00 0.00 0.00 86 1015.1
20260905123808 81 78 0.0 0.0 0.00 0.00 0.00 86 1015.1
20260905123305 80 78 0.0 0.0 0.00 0.00 0.00 88 1015.2
20260905122804 78 78 0.0 0.0 0.00 0.00 0.00 92 1015.1
20260905122306 76 79 0.0 0.0 0.00 0.00 0.00 95 1015.0
20260905121759 75 78 0.0 0.0 0.00 0.00 0.00 99 1015.2
20260905121255 74 78 0.0 0.0 0.00 0.00 0.00 99 1015.0
20260905120754 74 83 0.0 0.0 0.00 0.00 0.00 99 1014.8
20260905120254 74 87 0.0 0.0 0.00 0.00 0.00 99 1014.9
20260905115749 73 229 0.0 0.0 0.00 0.00 0.00 99 1015.0
20260905115248 73 31 0.0 0.0 0.00 0.00 0.00 99 1014.8
20260905114748 73 31 0.0 0.0 0.00 0.00 0.00 99 1014.9
20260905114247 73 31 0.0 0.0 0.00 0.00 0.00 99 1014.9
20260905113747 73 31 0.0 0.0 0.00 0.00 0.00 99 1014.8
20260905113243 73 31 0.0 0.0 0.00 0.00 0.00 99 1014.9
20260905112737 73 31 0.0 0.0 0.00 0.00 0.00 99 1014.8
20260905112232 73 31 0.0 0.0 0.00 0.00 0.00 99 1014.6
20260905111727 73 31 0.0 0.0 0.00 0.00 0.00 99 1014.7
20260905111221 73 31 0.0 0.0 0.00 0.00 0.00 99 1014.7
20260905110720 73 31 0.0 0.0 0.00 0.00 0.00 99 1014.6
20260905110215 73 31 0.0 0.0 0.00 0.00 0.00 99 1014.4
20260905105711 73 31 0.0 0.0 0.00 0.00 0.00 99 1014.4